Temperature
13 13 13 12 11 11 10 9 9 8 8 7 7 7 7 7 7 7 6 6 6 6 6 6 6 7 7 9 10 10 11 11 11 10 10 9 8 8 9 10 11 11 11
15 14 13 12 11 11 10 10 9 8 8 8 7 7 7 7 6 6 6 6 6 6 6 6 6 6 7 8 9 10 10 10 10 10 10 9 8 8 8 8 9 9 9
14 14 13 12 12 11 10 10 9 9 8 8 7 7 7 6 6 6 6 6 6 6 6 6 6 6 7 7 8 9 10 10 10 10 10 9 8 7 7 7 8 8 8
14 14 13 13 12 11 11 10 10 9 9 8 8 7 7 7 7 7 6 6 6 6 6 6 6 6 7 7 8 8 9 9 9 9 9 9 8 6 6 7 7 7 7
14 14 13 13 12 11 11 10 10 9 9 8 8 8 7 7 7 7 7 7 7 6 6 7 7 7 7 8 8 8 8 9 9 9 9 9 8 6 6 6 6 6 6
14 13 13 13 12 12 11 10 10 10 9 9 9 8 8 8 8 8 7 7 7 7 7 7 7 7 7 8 8 8 8 8 9 9 9 9 8 6 6 6 6 6 6
14 13 13 13 12 12 11 11 10 10 10 9 9 9 9 8 8 8 8 8 7 7 7 7 7 7 8 8 8 8 8 8 8 8 9 8 8 6 6 6 6 6 6
13 13 13 12 12 12 11 11 11 10 10 10 9 9 9 9 9 8 8 8 8 7 7 7 7 7 7 7 8 8 8 8 8 8 8 8 7 7 6 6 6 6 6
12 12 13 12 12 12 11 11 11 10 10 10 10 9 9 9 9 8 8 8 8 7 7 7 7 7 7 7 7 7 7 7 8 8 8 8 7 7 6 6 6 6 6
12 12 12 12 12 12 11 11 11 10 10 10 10 10 9 9 9 8 8 8 8 7 7 7 7 7 7 7 7 7 7 7 7 7 7 7 7 7 6 6 6 6 5
11 11 11 12 12 12 11 11 10 10 10 10 10 10 9 9 9 8 8 8 8 8 7 7 7 7 7 7 7 7 7 6 7 7 7 7 7 6 6 6 6 5 5
13 12 12 11 11 11 11 10 10 10 10 10 10 10 9 9 9 9 8 8 8 8 7 7 7 7 7 7 7 6 6 6 6 6 6 6 6 6 6 5 5 5 4
15 13 12 11 10 10 10 10 10 10 10 10 10 10 9 9 9 9 8 8 8 8 8 7 7 7 7 6 6 6 6 6 6 6 6 6 6 5 5 5 5 4 3
15 14 14 12 11 10 10 10 10 10 10 10 10 10 10 9 9 8 8 8 8 8 7 7 7 7 6 6 6 6 6 5 5 5 5 5 5 5 5 4 4 3 3
15 15 14 13 12 11 10 10 10 10 10 10 10 10 10 9 9 9 8 8 8 8 8 7 7 7 6 6 6 5 5 5 5 5 5 5 5 4 4 4 3 3 2
15 15 14 13 12 11 11 10 10 10 10 10 10 10 9 9 9 8 8 8 8 7 7 7 7 6 6 6 6 5 5 5 5 5 4 4 4 4 3 3 3 2 1
15 14 14 14 13 12 11 11 11 10 10 10 10 10 10 9 9 8 8 8 8 7 7 7 6 6 6 6 5 5 5 5 4 4 4 4 4 3 3 3 2 2 1
14 13 14 13 13 12 12 11 11 10 10 10 10 10 10 9 9 8 8 8 7 7 7 6 6 6 6 5 5 5 5 4 4 4 4 3 3 3 3 2 1 1 -0
14 14 13 13 13 12 12 11 11 10 10 10 10 10 10 9 9 8 8 8 7 7 7 6 6 6 5 5 5 5 4 4 4 4 3 3 3 2 2 2 1 1 -0
15 14 13 12 12 12 11 10 10 9 9 9 9 10 10 10 9 8 8 8 7 7 7 6 6 6 5 5 4 4 4 4 4 3 3 3 3 2 2 1 1 1 0
15 14 13 12 12 11 11 10 10 11 10 10 9 9 9 9 9 9 8 8 8 7 7 7 6 5 5 4 3 3 3 3 3 3 3 3 3 2 2 1 1 0 -0
15 14 13 12 12 11 12 12 12 11 11 10 9 9 9 9 9 9 9 8 8 7 7 6 6 6 5 4 4 3 2 2 3 3 3 2 2 2 1 1 0 -0 -1
15 14 13 12 12 11 11 10 9 9 8 9 9 10 10 9 9 9 9 9 8 8 7 7 6 6 5 4 4 3 2 2 2 1 1 1 1 1 1 0 -0 -1 -2
15 14 13 12 11 11 10 10 10 10 11 12 11 11 10 9 9 9 8 8 8 8 7 7 6 6 5 4 3 3 2 2 1 1 -0 -0 -0 -0 -0 -0 -1 -1 -2
14 14 13 12 11 10 9 9 9 9 10 10 9 9 8 8 8 8 8 7 7 7 7 6 6 5 5 4 4 3 2 1 0 -0 -1 -0 -1 -1 -1 -1 -1 -2 -2
14 14 13 12 11 10 9 9 8 8 8 8 7 7 7 7 7 7 7 7 7 6 6 5 5 4 4 3 3 3 2 1 1 1 0 0 -0 -0 -1 -1 -2 -2 -2
Wind_Speed
12 22 23 20 17 15 14 13 12 12 12 12 12 12 13 13 14 15 15 16 17 17 18 19 19 20 21 21 22 22 22 22 21 21 22 24 25 25 25 25 23 22 25
16 24 24 22 19 17 15 14 13 12 12 12 12 12 12 12 13 13 14 15 15 16 17 17 18 19 19 20 20 21 20 20 20 20 20 20 23 24 24 24 24 22 24
21 25 24 23 20 18 16 15 13 13 12 12 12 11 11 12 12 12 13 13 14 14 15 16 16 17 18 19 19 19 18 18 18 19 19 19 19 23 23 23 23 23 23
23 25 24 24 22 20 18 16 15 13 12 12 12 11 11 11 11 11 12 12 13 13 14 14 15 16 16 17 17 17 17 16 17 17 16 18 18 20 22 22 22 22 22
22 25 25 25 23 21 19 17 16 14 13 12 12 11 11 10 10 11 10 11 11 11 12 13 13 14 15 15 16 16 16 15 16 15 16 17 17 19 21 21 21 21 21
18 25 26 26 24 22 20 18 17 15 14 13 12 11 11 10 10 10 9 9 9 10 10 11 11 12 13 14 14 15 14 14 13 13 14 16 17 19 20 20 20 21 21
15 24 26 26 24 23 21 20 18 16 15 14 13 12 11 10 10 9 8 8 8 8 8 9 10 10 11 12 13 13 13 12 12 12 13 15 17 18 19 20 20 20 21
14 22 26 26 25 23 22 20 19 18 16 15 13 12 11 11 10 9 8 7 7 6 6 7 8 8 9 10 11 12 12 11 11 11 12 14 17 17 18 19 19 20 20
16 20 23 23 24 23 22 21 20 19 17 16 15 13 12 11 10 9 8 7 6 5 5 5 5 6 7 8 9 10 10 10 11 11 11 12 16 16 17 18 18 19 19
11 14 21 22 22 22 22 22 21 20 19 17 16 14 13 12 10 9 8 7 6 5 4 3 3 3 3 5 7 7 7 8 9 9 10 12 15 15 16 17 17 18 18
13 11 17 21 22 22 21 22 22 21 20 18 17 16 14 12 11 10 9 9 7 5 4 2 1 1 3 2 3 5 6 7 7 6 6 11 13 14 15 16 16 17 17
16 15 11 17 21 22 22 21 21 20 20 19 18 17 16 15 15 13 12 10 8 7 6 5 4 5 5 2 2 3 5 7 6 5 6 10 12 13 14 15 15 16 16
16 15 14 12 20 21 19 20 19 19 19 20 21 21 19 16 14 13 13 12 10 9 10 9 9 10 6 2 2 2 2 3 4 4 6 9 11 12 13 14 15 15 16
15 17 15 13 14 18 19 18 19 18 18 19 21 24 20 15 14 15 14 16 15 14 13 12 12 10 7 6 5 3 3 3 3 4 5 8 10 11 13 13 14 15 15
18 18 16 14 12 14 14 14 16 16 18 20 21 23 22 16 12 14 14 16 17 16 15 12 12 10 9 8 7 6 5 5 5 6 6 9 10 11 12 13 14 14 15
19 19 17 17 13 14 11 10 12 16 17 19 20 22 23 20 16 14 13 14 15 16 15 15 13 9 8 8 7 7 7 8 8 8 8 10 11 12 13 13 14 14 15
17 18 19 17 14 13 12 12 14 16 18 17 19 23 23 22 19 17 12 12 15 17 16 13 11 9 6 6 6 9 9 10 9 9 10 11 11 13 14 14 14 15 16
14 17 19 18 17 16 12 12 13 16 17 17 19 22 24 24 22 18 12 11 17 17 15 9 6 5 5 5 5 6 8 9 10 12 13 13 13 13 14 15 16 16 17
16 16 17 17 17 16 13 11 13 14 15 17 19 20 23 25 24 19 14 14 18 14 12 9 6 6 6 6 6 6 5 6 9 12 13 15 16 16 15 16 17 18 18
15 15 16 16 16 14 12 9 9 10 9 15 17 19 22 24 25 21 16 16 17 9 8 8 8 7 6 5 6 6 6 6 8 10 12 14 15 17 17 17 17 17 19
13 13 15 16 16 14 12 13 14 14 11 9 12 19 22 23 25 22 14 14 14 11 11 11 8 8 8 5 3 4 6 9 10 9 11 11 12 16 17 18 18 17 18
12 12 13 14 16 15 13 12 9 9 8 9 7 14 22 23 24 24 17 11 12 11 13 13 10 8 7 8 5 3 4 5 9 12 8 8 9 13 15 17 18 19 19
9 12 12 13 15 15 13 7 7 7 7 9 11 12 15 22 24 22 21 15 12 13 14 16 14 14 11 10 8 6 5 8 3 4 9 9 9 7 9 14 18 20 21
7 8 11 11 12 13 13 11 12 13 16 15 11 10 11 18 20 23 21 20 14 13 15 16 16 13 11 9 8 8 6 5 5 3 4 7 10 10 9 12 15 19 21
4 6 8 9 10 11 13 14 13 15 13 9 9 11 13 13 17 20 21 18 16 14 15 15 15 15 14 12 8 6 8 6 5 6 5 5 5 7 8 8 12 15 19
2 4 5 7 8 9 12 13 14 16 13 11 12 12 12 11 13 16 17 16 16 15 16 15 15 16 16 15 12 9 7 6 8 9 11 8 6 6 7 7 8 12 17
Wind_Direction
141 151 153 149 147 143 138 131 124 117 112 106 100 94 89 84 80 76 73 70 67 64 62 60 58 57 57 55 52 50 50 50 51 50 45 44 48 48 47 45 45 39 39
142 152 155 152 151 149 144 137 132 126 120 114 108 102 95 90 85 81 77 73 68 65 63 61 58 57 57 56 53 50 49 50 50 50 45 32 38 46 45 43 42 40 38
145 152 157 155 154 153 149 145 140 135 129 123 116 109 103 97 91 85 81 76 72 67 64 61 59 57 56 55 53 51 49 50 51 50 40 21 22 42 42 41 39 38 36
149 153 159 158 157 156 154 152 148 143 138 132 125 118 111 104 97 91 85 80 76 70 66 62 59 56 55 53 51 49 49 50 52 51 36 22 17 36 39 37 36 35 34
151 156 161 160 160 160 159 157 154 150 146 141 134 128 120 113 106 99 92 85 79 73 68 64 59 54 52 50 49 47 46 50 54 48 38 23 11 29 35 34 32 31 31
153 157 159 163 164 164 164 162 159 156 153 149 144 138 131 124 116 108 101 93 85 78 71 65 60 54 50 47 45 43 42 50 57 51 43 23 9 25 30 29 27 26 26
156 154 161 167 168 168 168 167 165 163 160 157 152 148 143 136 129 121 113 104 94 83 74 66 60 53 47 44 41 38 36 42 58 54 47 22 13 24 25 24 22 21 20
156 153 164 171 172 172 172 172 170 169 167 164 162 158 154 148 142 136 128 118 106 92 79 68 59 50 43 39 35 33 32 37 46 42 48 21 16 20 20 19 17 16 15
159 156 164 174 175 176 177 176 175 174 173 171 170 167 163 160 156 150 145 138 128 113 96 77 60 46 37 34 30 26 26 32 46 42 37 15 14 14 15 14 12 10 9
163 162 165 175 177 178 180 181 180 179 179 178 176 174 171 170 166 163 161 159 152 142 128 104 69 36 22 24 25 19 22 28 39 46 35 11 9 9 8 8 6 4 3
176 175 170 176 179 179 180 185 183 183 183 182 180 180 177 173 173 177 178 174 174 172 172 169 191 290 285 291 2 9 18 20 28 41 34 7 3 1 1 0 359 357 356
186 184 179 179 179 180 184 184 182 184 184 180 178 181 182 190 188 184 182 182 189 193 200 209 231 248 264 285 335 354 14 13 13 15 9 355 353 352 351 351 350 349 348
188 185 187 185 180 180 182 177 181 184 182 184 182 181 191 197 184 169 169 186 196 205 214 216 229 238 243 217 280 308 4 350 343 355 343 336 340 340 340 341 340 339 339
190 192 189 188 182 181 179 178 181 184 183 188 190 183 189 189 179 180 181 185 195 203 213 211 221 221 220 228 232 255 275 279 292 305 306 314 322 325 326 328 329 329 329
194 193 192 188 186 181 178 181 184 185 183 186 189 186 186 186 185 185 193 193 196 199 201 210 220 218 214 224 229 235 246 263 270 278 284 295 301 306 309 313 316 317 319
197 194 191 192 188 184 184 184 188 186 183 184 187 190 190 188 190 188 192 196 199 202 201 206 215 214 214 217 225 236 243 253 258 262 267 275 286 292 295 298 302 305 308
197 191 190 193 190 188 189 189 191 190 187 188 189 193 196 195 193 192 192 194 199 202 204 207 217 214 218 218 221 233 237 241 247 255 261 261 263 273 282 285 289 293 297
194 189 189 192 194 193 192 192 194 195 194 195 193 194 198 200 198 194 194 195 196 199 199 196 204 199 214 215 222 230 229 229 236 246 251 251 249 251 261 273 280 284 288
194 187 186 188 192 194 191 192 198 199 201 199 198 197 199 201 201 197 197 198 195 194 194 200 198 199 207 213 218 224 224 227 234 243 241 241 241 240 243 256 269 276 281
187 184 183 185 189 190 190 192 199 208 206 203 201 201 199 201 201 201 200 198 194 192 194 197 201 201 205 204 222 233 228 226 232 234 236 238 237 236 238 241 250 262 273
177 181 182 186 189 190 195 199 203 209 208 206 203 202 200 200 200 202 204 201 198 199 199 196 194 201 205 188 203 261 256 236 233 231 226 225 229 232 234 234 238 244 254
176 183 185 188 190 195 201 203 204 203 209 212 207 207 204 202 202 205 205 203 201 201 201 200 196 196 200 187 176 191 264 267 234 228 215 214 219 223 226 233 235 237 241
184 189 194 192 193 195 194 189 194 199 207 213 213 213 209 206 205 206 207 206 205 205 208 205 199 196 203 198 187 172 193 227 253 230 216 217 214 212 219 227 233 236 240
203 195 195 194 194 193 191 197 199 207 216 218 215 213 210 211 210 210 209 209 210 210 212 209 206 203 195 200 203 209 201 173 184 252 261 225 218 219 220 230 236 236 238
204 194 195 198 201 195 198 203 210 221 226 225 217 216 215 215 215 214 212 212 215 215 214 211 209 206 206 204 197 189 213 220 198 198 241 242 233 225 223 225 232 235 238
182 184 191 204 214 206 204 208 214 223 226 226 224 224 222 220 219 217 215 215 217 218 217 214 213 211 211 211 209 199 184 187 203 205 221 225 231 232 226 226 229 234 240
Height
1556 1559 1561 1563 1565 1566 1567 1568 1569 1569 1570 1570 1570 1570 1570 1570 1569 1569 1569 1568 1567 1567 1566 1565 1564 1563 1562 1560 1559 1559 1558 1558 1557 1557 1557 1558 1558 1558 1557 1556 1556 1555 1555
1554 1557 1560 1562 1564 1565 1566 1567 1568 1569 1569 1570 1570 1570 1570 1570 1569 1569 1568 1568 1567 1567 1566 1565 1564 1563 1562 1561 1560 1559 1559 1558 1558 1557 1557 1557 1558 1558 1557 1556 1556 1555 1555
1552 1554 1557 1560 1562 1564 1565 1566 1567 1568 1569 1569 1569 1569 1569 1569 1569 1569 1568 1568 1567 1567 1566 1565 1565 1564 1563 1562 1561 1560 1559 1559 1558 1558 1558 1557 1557 1559 1557 1557 1556 1555 1555
1550 1552 1555 1558 1560 1562 1564 1565 1566 1567 1568 1568 1568 1569 1569 1569 1569 1568 1568 1568 1567 1567 1566 1565 1565 1564 1563 1562 1561 1561 1560 1559 1559 1558 1558 1557 1557 1559 1558 1557 1556 1555 1554
1549 1550 1553 1556 1558 1560 1562 1564 1565 1566 1567 1567 1567 1568 1568 1568 1568 1568 1568 1567 1567 1566 1566 1565 1565 1564 1564 1563 1562 1561 1560 1560 1559 1559 1558 1557 1557 1558 1558 1556 1556 1555 1554
1547 1548 1551 1554 1556 1558 1560 1562 1563 1564 1565 1566 1566 1567 1567 1567 1567 1567 1567 1567 1567 1566 1566 1565 1565 1564 1564 1563 1562 1562 1561 1560 1559 1559 1558 1558 1557 1558 1557 1556 1555 1555 1554
1545 1546 1548 1552 1554 1556 1558 1560 1561 1563 1564 1565 1565 1566 1566 1566 1566 1566 1566 1566 1566 1566 1565 1565 1564 1564 1563 1563 1562 1562 1561 1560 1559 1559 1558 1558 1557 1557 1557 1556 1555 1554 1553
1543 1544 1546 1549 1552 1554 1556 1558 1559 1561 1562 1563 1564 1564 1565 1565 1565 1566 1566 1566 1565 1565 1565 1564 1564 1564 1563 1563 1562 1562 1561 1560 1560 1559 1558 1557 1557 1556 1556 1555 1554 1553 1552
1541 1542 1543 1546 1549 1551 1553 1555 1557 1558 1560 1561 1562 1563 1563 1564 1564 1564 1564 1564 1564 1564 1564 1564 1563 1563 1563 1562 1562 1561 1561 1560 1559 1558 1558 1557 1556 1555 1555 1554 1552 1551 1551
1538 1539 1540 1543 1545 1548 1550 1552 1554 1556 1557 1558 1559 1560 1561 1562 1562 1563 1563 1563 1563 1563 1563 1563 1562 1562 1562 1562 1561 1560 1560 1559 1558 1558 1557 1556 1555 1554 1553 1552 1551 1550 1549
1535 1536 1537 1538 1541 1544 1546 1549 1551 1552 1554 1555 1556 1558 1559 1559 1560 1561 1561 1561 1561 1561 1561 1561 1561 1561 1560 1560 1560 1559 1559 1558 1557 1556 1555 1555 1554 1553 1552 1551 1550 1549 1548
1528 1530 1533 1534 1537 1539 1542 1544 1546 1548 1550 1551 1553 1555 1556 1557 1557 1558 1558 1558 1559 1559 1559 1559 1559 1559 1559 1558 1558 1557 1557 1556 1555 1554 1554 1553 1552 1551 1550 1549 1548 1546 1545
1523 1526 1528 1531 1533 1535 1537 1539 1541 1543 1545 1547 1549 1551 1552 1553 1554 1554 1555 1556 1556 1556 1557 1557 1557 1557 1556 1556 1556 1555 1555 1554 1553 1552 1552 1551 1550 1549 1547 1546 1545 1544 1543
1519 1520 1523 1526 1528 1530 1532 1534 1536 1538 1540 1542 1544 1546 1548 1549 1550 1551 1552 1552 1553 1553 1554 1554 1554 1554 1554 1553 1553 1553 1552 1551 1551 1550 1549 1548 1547 1546 1545 1543 1542 1541 1540
1513 1515 1517 1520 1523 1525 1527 1529 1531 1533 1535 1537 1540 1541 1543 1545 1546 1547 1548 1548 1549 1549 1550 1550 1550 1550 1550 1550 1550 1549 1549 1548 1547 1547 1546 1545 1544 1542 1541 1540 1539 1538 1536
1507 1509 1512 1515 1518 1520 1522 1524 1526 1528 1530 1532 1534 1537 1538 1540 1542 1542 1543 1544 1544 1545 1546 1546 1546 1546 1546 1546 1546 1546 1545 1545 1544 1543 1542 1541 1540 1539 1538 1536 1535 1534 1533
1502 1504 1506 1509 1512 1514 1516 1518 1521 1523 1525 1527 1529 1531 1533 1535 1536 1537 1538 1539 1540 1541 1541 1542 1542 1542 1542 1542 1541 1541 1541 1540 1540 1539 1538 1537 1536 1535 1534 1532 1531 1530 1528
1498 1500 1501 1504 1506 1508 1511 1513 1515 1517 1519 1521 1523 1525 1527 1529 1530 1531 1532 1533 1535 1536 1536 1536 1537 1537 1537 1537 1536 1536 1535 1535 1534 1534 1533 1531 1530 1530 1529 1527 1526 1525 1524
1492 1495 1496 1498 1500 1503 1505 1508 1510 1512 1513 1515 1516 1517 1519 1522 1524 1525 1526 1528 1529 1529 1530 1530 1531 1531 1531 1531 1531 1530 1529 1529 1528 1528 1527 1526 1525 1524 1523 1522 1521 1519 1518
1487 1490 1491 1493 1495 1498 1501 1503 1504 1506 1506 1508 1509 1510 1512 1514 1516 1518 1519 1521 1522 1522 1523 1523 1524 1525 1525 1525 1524 1523 1522 1522 1522 1521 1521 1520 1519 1518 1517 1516 1515 1514 1512
1483 1485 1487 1488 1489 1492 1493 1494 1495 1496 1498 1500 1501 1503 1504 1506 1508 1510 1511 1513 1514 1514 1515 1516 1517 1517 1518 1519 1518 1516 1515 1515 1514 1514 1513 1513 1512 1512 1511 1509 1508 1507 1506
1479 1481 1482 1483 1484 1485 1486 1488 1489 1491 1492 1494 1495 1496 1497 1498 1499 1501 1502 1503 1505 1506 1507 1507 1508 1509 1510 1511 1511 1510 1508 1506 1503 1505 1505 1505 1505 1505 1504 1503 1502 1500 1499
1477 1477 1478 1478 1479 1479 1481 1484 1485 1486 1486 1486 1486 1486 1488 1489 1490 1491 1493 1494 1496 1496 1497 1497 1499 1500 1500 1501 1501 1502 1501 1497 1497 1495 1495 1496 1497 1497 1497 1496 1495 1493 1492
1475 1474 1474 1475 1475 1475 1476 1477 1477 1476 1474 1474 1477 1479 1481 1482 1482 1482 1483 1484 1485 1486 1486 1487 1489 1490 1491 1490 1491 1490 1491 1492 1492 1489 1487 1487 1488 1488 1489 1489 1487 1486 1485
1473 1472 1471 1471 1471 1472 1472 1471 1471 1470 1469 1471 1472 1472 1472 1473 1473 1473 1474 1474 1475 1475 1476 1477 1478 1479 1479 1480 1480 1480 1481 1481 1481 1481 1479 1479 1479 1479 1480 1481 1480 1479 1478
1471 1469 1468 1467 1467 1467 1467 1467 1466 1465 1465 1466 1465 1465 1465 1464 1464 1464 1464 1464 1464 1465 1465 1466 1467 1468 1468 1469 1470 1469 1469 1469 1468 1469 1468 1468 1469 1470 1472 1472 1471 1471 1470